When you browse on this site, cookies collect data to enhance your experience and personalize the content and advertising you see.
Visit our Privacy Policy to learn more. By continuing to use the site, you agree to this use of cookies and data.
  • In Netherlands
  • List of Countries
  • For 7 days
  • Water Temperature
  • Weather Map
  • Weather Widgets
  • user-avatar
    Login

    Hourly Weather San Juan

    Today, 28 February, Friday

    Time Temperature Precipitation Wind Pressure Humidity
    00:00 +27°C° 0 mm 1 mps 706 mmHg 35%
    01:00 +27°C° 0 mm 1 mps 706 mmHg 38%
    02:00 +26°C° 0 mm 1 mps 706 mmHg 38%
    03:00 +26°C° 0 mm 1 mps 706 mmHg 39%
    04:00 +26°C° 0 mm 2 mps 706 mmHg 40%
    05:00 +27°C° 0 mm 2 mps 706 mmHg 37%
    06:00 +28°C° 0 mm 2 mps 707 mmHg 35%
    07:00 +29°C° 0 mm 2 mps 708 mmHg 33%
    08:00 +31°C° 0 mm 2 mps 708 mmHg 30%
    09:00 +32°C° 0 mm 2 mps 708 mmHg 27%
    10:00 +35°C° 0 mm 2 mps 708 mmHg 24%
    11:00 +36°C° 0 mm 2 mps 708 mmHg 22%
    12:00 +37°C° 0 mm 3 mps 707 mmHg 20%
    13:00 +38°C° 0 mm 3 mps 707 mmHg 18%
    14:00 +38°C° 0 mm 3 mps 707 mmHg 17%
    15:00 +38°C° 0 mm 3 mps 706 mmHg 16%
    16:00 +38°C° 0 mm 3 mps 706 mmHg 16%
    17:00 +37°C° 0 mm 4 mps 706 mmHg 17%
    18:00 +35°C° 0 mm 4 mps 707 mmHg 19%
    19:00 +33°C° 0 mm 4 mps 708 mmHg 21%
    20:00 +33°C° 0 mm 4 mps 708 mmHg 21%
    21:00 +33°C° 0 mm 4 mps 709 mmHg 22%
    22:00 +32°C° 0 mm 4 mps 709 mmHg 23%
    23:00 +31°C° 0 mm 3 mps 709 mmHg 24%

    Tomorrow, 29 February, Saturday

    Time Temperature Precipitation Wind Pressure Humidity
    00:00 +30°C° 0 mm 3 mps 709 mmHg 26%
    01:00 +30°C° 0 mm 3 mps 709 mmHg 27%
    02:00 +29°C° 0 mm 2 mps 709 mmHg 29%
    03:00 +28°C° 0 mm 2 mps 709 mmHg 30%
    04:00 +27°C° 0 mm 2 mps 709 mmHg 31%
    05:00 +28°C° 0 mm 2 mps 709 mmHg 29%
    06:00 +30°C° 0 mm 2 mps 710 mmHg 27%
    07:00 +31°C° 0 mm 2 mps 711 mmHg 25%
    08:00 +33°C° 0 mm 3 mps 710 mmHg 23%
    09:00 +35°C° 0 mm 4 mps 710 mmHg 21%
    10:00 +37°C° 0 mm 5 mps 710 mmHg 19%
    11:00 +39°C° 0 mm 5 mps 710 mmHg 16%
    12:00 +40°C° 0 mm 6 mps 709 mmHg 14%
    13:00 +41°C° 0 mm 6 mps 709 mmHg 12%
    14:00 +40°C° 0 mm 7 mps 708 mmHg 12%
    15:00 +40°C° 0 mm 8 mps 708 mmHg 13%
    16:00 +40°C° 0 mm 9 mps 707 mmHg 13%
    17:00 +38°C° 0 mm 8 mps 707 mmHg 15%
    18:00 +36°C° 0 mm 7 mps 707 mmHg 17%
    19:00 +34°C° 0 mm 6 mps 707 mmHg 18%
    20:00 +33°C° 0 mm 7 mps 708 mmHg 19%
    21:00 +32°C° 0 mm 7 mps 708 mmHg 20%
    22:00 +32°C° 0 mm 8 mps 708 mmHg 22%
    23:00 +30°C° 0 mm 7 mps 708 mmHg 23%

    Day after tomorrow, 1 March, Sunday

    Time Temperature Precipitation Wind Pressure Humidity
    00:00 +29°C° 0 mm 6 mps 708 mmHg 24%
    01:00 +29°C° 0 mm 5 mps 708 mmHg 25%
    02:00 +28°C° 0 mm 5 mps 707 mmHg 26%
    03:00 +28°C° 0 mm 4 mps 707 mmHg 27%
    04:00 +27°C° 0 mm 4 mps 707 mmHg 28%
    05:00 +28°C° 0 mm 4 mps 707 mmHg 27%
    06:00 +29°C° 0 mm 4 mps 708 mmHg 25%
    07:00 +30°C° 0 mm 4 mps 708 mmHg 23%
    08:00 +33°C° 0 mm 5 mps 708 mmHg 21%
    09:00 +34°C° 0 mm 6 mps 708 mmHg 19%
    10:00 +36°C° 0 mm 6 mps 708 mmHg 17%
    11:00 +38°C° 0 mm 7 mps 707 mmHg 16%
    12:00 +39°C° 0 mm 7 mps 707 mmHg 15%
    13:00 +40°C° 0 mm 8 mps 706 mmHg 15%
    14:00 +40°C° 0 mm 8 mps 706 mmHg 15%
    15:00 +40°C° 0 mm 7 mps 705 mmHg 15%
    16:00 +39°C° 0 mm 7 mps 705 mmHg 16%
    17:00 +38°C° 0 mm 8 mps 705 mmHg 18%
    18:00 +35°C° 0 mm 8 mps 705 mmHg 21%
    19:00 +34°C° 0 mm 8 mps 706 mmHg 23%
    20:00 +33°C° 0 mm 7 mps 706 mmHg 25%
    21:00 +32°C° 0 mm 7 mps 707 mmHg 27%
    22:00 +30°C° 0 mm 6 mps 707 mmHg 28%
    23:00 +30°C° 0 mm 5 mps 707 mmHg 29%

    2 March, Monday

    Time Temperature Precipitation Wind Pressure Humidity
    00:00 +29°C° 0 mm 5 mps 706 mmHg 30%
    01:00 +28°C° 0 mm 5 mps 706 mmHg 30%
    02:00 +28°C° 0 mm 4 mps 706 mmHg 31%
    03:00 +27°C° 0 mm 4 mps 706 mmHg 31%
    04:00 +27°C° 0 mm 4 mps 706 mmHg 31%
    05:00 +28°C° 0 mm 4 mps 706 mmHg 29%
    06:00 +28°C° 0 mm 4 mps 707 mmHg 28%
    07:00 +29°C° 0 mm 3 mps 707 mmHg 27%
    08:00 +31°C° 0 mm 3 mps 707 mmHg 25%
    09:00 +34°C° 0 mm 3 mps 707 mmHg 23%
    10:00 +35°C° 0 mm 4 mps 707 mmHg 21%
    11:00 +36°C° 0 mm 3 mps 706 mmHg 19%
    12:00 +37°C° 0 mm 3 mps 706 mmHg 18%
    13:00 +38°C° 0 mm 3 mps 705 mmHg 16%
    14:00 +39°C° 0 mm 3 mps 705 mmHg 16%
    15:00 +39°C° 0 mm 3 mps 704 mmHg 16%
    16:00 +39°C° 0 mm 3 mps 704 mmHg 15%
    17:00 +37°C° 0 mm 4 mps 704 mmHg 18%
    18:00 +35°C° 0 mm 4 mps 705 mmHg 21%
    19:00 +33°C° 0 mm 4 mps 705 mmHg 24%
    20:00 +33°C° 0 mm 4 mps 705 mmHg 25%
    21:00 +32°C° 0 mm 5 mps 706 mmHg 26%
    22:00 +32°C° 0 mm 5 mps 706 mmHg 27%
    23:00 +30°C° 0 mm 4 mps 706 mmHg 28%

    3 March, Tuesday

    Time Temperature Precipitation Wind Pressure Humidity
    00:00 +29°C° 0 mm 4 mps 705 mmHg 29%
    01:00 +28°C° 0 mm 3 mps 705 mmHg 31%
    02:00 +28°C° 0 mm 2 mps 705 mmHg 32%
    03:00 +27°C° 0 mm 2 mps 704 mmHg 33%
    04:00 +26°C° 0 mm 1 mps 704 mmHg 35%
    05:00 +28°C° 0 mm 1 mps 705 mmHg 32%
    06:00 +29°C° 0 mm 2 mps 705 mmHg 30%
    07:00 +30°C° 0 mm 2 mps 706 mmHg 27%
    08:00 +32°C° 0 mm 2 mps 706 mmHg 25%
    09:00 +35°C° 0 mm 3 mps 705 mmHg 23%
    10:00 +37°C° 0 mm 3 mps 705 mmHg 20%
    11:00 +38°C° 0 mm 3 mps 705 mmHg 19%
    12:00 +39°C° 0 mm 3 mps 705 mmHg 18%
    13:00 +40°C° 0 mm 3 mps 704 mmHg 16%
    14:00 +41°C° 0 mm 4 mps 704 mmHg 16%
    15:00 +41°C° 0 mm 4 mps 704 mmHg 15%
    16:00 +41°C° 0 mm 5 mps 703 mmHg 15%
    17:00 +38°C° 0 mm 4 mps 704 mmHg 18%
    18:00 +36°C° 0 mm 3 mps 704 mmHg 20%
    19:00 +34°C° 0 mm 2 mps 705 mmHg 23%
    20:00 +32°C° 0 mm 2 mps 705 mmHg 24%
    21:00 +32°C° 0 mm 2 mps 705 mmHg 26%
    22:00 +31°C° 0 mm 2 mps 706 mmHg 28%
    23:00 +30°C° 0 mm 2 mps 706 mmHg 30%

    4 March, Wednesday

    Time Temperature Precipitation Wind Pressure Humidity
    00:00 +30°C° 0 mm 2 mps 706 mmHg 32%
    01:00 +29°C° 0 mm 2 mps 706 mmHg 33%
    02:00 +28°C° 0 mm 2 mps 706 mmHg 34%
    03:00 +28°C° 0 mm 1 mps 705 mmHg 36%
    04:00 +27°C° 0 mm 1 mps 705 mmHg 37%
    05:00 +29°C° 0 mm 1 mps 706 mmHg 34%
    06:00 +30°C° 0 mm 1 mps 707 mmHg 31%
    07:00 +31°C° 0 mm 1 mps 708 mmHg 28%
    08:00 +33°C° 0 mm 1 mps 708 mmHg 26%
    09:00 +34°C° 0 mm 1 mps 708 mmHg 25%
    10:00 +36°C° 0 mm 1 mps 708 mmHg 23%
    11:00 +38°C° 0 mm 2 mps 707 mmHg 21%
    12:00 +39°C° 0 mm 2 mps 707 mmHg 19%
    13:00 +40°C° 0 mm 2 mps 706 mmHg 17%
    14:00 +40°C° 0 mm 3 mps 706 mmHg 16%
    15:00 +40°C° 0 mm 3 mps 705 mmHg 16%
    16:00 +42°C° 0 mm 4 mps 705 mmHg 15%
    17:00 +40°C° 0 mm 4 mps 705 mmHg 18%
    18:00 +37°C° 0 mm 4 mps 706 mmHg 20%
    19:00 +35°C° 0 mm 4 mps 706 mmHg 22%
    20:00 +34°C° 0 mm 5 mps 706 mmHg 23%
    21:00 +34°C° 0 mm 5 mps 707 mmHg 24%
    22:00 +33°C° 0 mm 5 mps 707 mmHg 25%
    23:00 +33°C° 0 mm 5 mps 707 mmHg 26%
    Show more